This is the latest recevied weather packets stored in our database for station/object N2ZVN. If no packets are shown the sender has not sent any weather packets the latest 10 day(s).
| Time | Temp. | Humidity | Pressure | Rain* | Wind** | Luminosity | Snow |
|---|---|---|---|---|---|---|---|
| 1788108787 | 18.89° C | 92% | 1020.9 hPa | 0 mm | - | 34 W/m² | - |
| 1788108483 | 18.89° C | 92% | 1020.9 hPa | 0 mm | - | 60 W/m² | - |
| 1788108179 | 18.89° C | 92% | 1020.8 hPa | 0 mm | - | 89 W/m² | - |
| 1788107875 | 18.89° C | 93% | 1020.9 hPa | 0 mm | - | 61 W/m² | - |
| 1788107571 | 18.89° C | 92% | 1020.6 hPa | 0 mm | - | 44 W/m² | - |
| 1788107265 | 18.89° C | 93% | 1020.8 hPa | 0 mm | - | 41 W/m² | - |
| 1788106962 | 18.89° C | 93% | 1020.7 hPa | 0 mm | - | 40 W/m² | - |
| 1788106657 | 18.89° C | 93% | 1020.8 hPa | 0 mm | - | 37 W/m² | - |
| 1788106356 | 18.89° C | 93% | 1020.9 hPa | 0 mm | - | 33 W/m² | - |
| 1788106052 | 18.89° C | 92% | 1021 hPa | 0 mm | - | 30 W/m² | - |
| 1788105752 | 18.89° C | 92% | 1020.7 hPa | 0 mm | - | 34 W/m² | - |
| 1788105448 | 18.89° C | 91% | 1020.9 hPa | 0 mm | - | 46 W/m² | - |
| 1788105144 | 18.89° C | 92% | 1020.8 hPa | 0 mm | - | 52 W/m² | - |
| 1788104839 | 18.89° C | 91% | 1020.9 hPa | 0 mm | - | 85 W/m² | - |
| 1788104535 | 18.89° C | 90% | 1020.7 hPa | 0 mm | - | 40 W/m² | - |
| 1788104232 | 18.89° C | 90% | 1020.8 hPa | 1.27 mm | - | 40 W/m² | - |
| 1788103932 | 18.89° C | 90% | 1020.9 hPa | 1.27 mm | - | 49 W/m² | - |
| 1788103630 | 18.89° C | 89% | 1020.8 hPa | 0 mm | - | 64 W/m² | - |
| 1788103330 | 18.89° C | 88% | 1020.8 hPa | 0 mm | - | 71 W/m² | - |
| 1788103025 | 18.89° C | 87% | 1020.7 hPa | 0 mm | - | 62 W/m² | - |
| 1788102724 | 18.89° C | 87% | 1020.8 hPa | 0 mm | - | 59 W/m² | - |
| 1788102420 | 19.44° C | 85% | 1020.6 hPa | 0 mm | - | 46 W/m² | - |
| 1788102120 | 19.44° C | 85% | 1020.6 hPa | 0 mm | - | 39 W/m² | - |
| 1788101820 | 19.44° C | 85% | 1020.7 hPa | 0 mm | - | 40 W/m² | - |
| 1788101515 | 19.44° C | 83% | 1020.6 hPa | 0 mm | - | 34 W/m² | - |
* Rain latest hour (hover to see other rain measurements)
** Current wind speed in m/s (hover to see current wind gust speed)